World > North America > United States > Texas > Pettus  

Pettus, TX Hourly Weather Updates

Feedback E-mail the Weather

Quick Clicks

Pettus, TX Weather Maps

°F °C°F °C
Pettus Weather Map
UTC Time: 4/17/2024, 10:30
Your Time:

Pettus, TX Regional Weather

Expires:202404171100;;891758
ASUS44 KSJT 171010
RWRSJT
WEST CENTRAL TEXAS REGIONAL WEATHER ROUNDUP
NATIONAL WEATHER SERVICE SAN ANGELO TX
500 AM CDT WED APR 17 2024

NOTE: "FAIR" INDICATES FEW OR NO CLOUDS BELOW 12,000 FEET WITH NO
SIGNIFICANT WEATHER AND/OR OBSTRUCTIONS TO VISIBILITY.


TXZ229-232-234-239-242-243-245-247-249-250-
253-255-257-343-347-443-171100-
TEXAS COASTAL BEND, RIO GRANDE PLAINS DEEP SOUTH TEXAS
  
CITY           SKY/WX    TMP DP  RH WIND       PRES   REMARKS
VICTORIA       CLOUDY    75  73  93 SE7       29.88F TC  24           
BEEVILLE       CLOUDY    75  72  91 CALM      29.86S TC  24           
ROCKPORT       CLOUDY    76  73  91 SE10G17   29.83F TC  24           
PORT ARANSAS   CLOUDY    74  72  92 S12       29.87F TC  24           
PORT LAVACA    CLOUDY    77  74  91 SE6       29.87F TC  25           
CORPUS CHRISTI LGT RAIN  76  74  93 S17       29.83F TC  24           
KINGSVILLE NAS CLOUDY    77  74  90 SE12      29.82S TC  25           
COTULLA        CLOUDY    74  70  87 NE7       29.85S TC  23           
LAREDO         CLOUDY    75  71  87 SE7       29.83F TC  24           
BROWNSVILLE    CLOUDY    78  73  84 SE9       29.84S TC  26           
PORT ISABEL    CLOUDY    76  73  91 S8        29.85S TC  24           
HEBBRONVILLE   LGT RAIN  74  73  95 SE16G24   29.81F TC  23           
MCALLEN        CLOUDY    78  73  84 SE9       29.84S TC  26           
WESLACO        NOT AVBL                                          

SKY/WX - Weather  TMP - Temperature  DP - Dew Point  RH - Humidity
WIND - Wind Direction/Speed PRES - Barometric Pressure VSB - Visibility
WCI - Wind Chill Index E13G22 Wind - East Wind 13 mph/Gusts of 22 mph

Trending Headlines

Trending Entertainment Headlines

Pettus Radar Loop

Use the map search tool if you want to place a location marker on the radar map...

Pettus Quick Facts

National Two Day Weather Forecast


E-mail the Pettus Weather Forecast

Voice your opinion or tell us about page issues...